SCP
-0 -0 -0 0 -0 -0 -0 0 0 0 0 0 0 -0 -0 0 -0 0 0 0 -0 -0 -0 0 0 0 0 0 0 -0 -0 0 0 0 0 0 0 0 0 0 0 0 0
-0 0 -0 -0 0 -0 -0 0 0 0 0 -0 -0 0 -0 0 0 0 0 -0 0 -0 0 0 0 0 -0 -0 -0 0 0 -0 0 0 0 0 0 0 0 0 0 0 0
-0 0 0 -0 -0 -0 -0 -0 0 -0 -0 -0 -0 -1 -2 -1 -0 0 0 0 0 0 0 0 -0 -0 -0 -0 -0 0 0 0 0 0 0 0 0 0 0 0 0 0 0
-0 -0 -0 -0 -0 -0 -0 -0 -0 -0 0 -0 -0 -0 -1 -1 -0 -0 0 0 0 0 -0 -0 -0 -0 -0 -0 0 0 0 0 0 0 0 0 0 0 0 0 0 0 0
-0 -0 -0 -0 -0 -0 -0 -0 -0 -0 -0 -0 -0 -0 -0 -0 -0 -0 -0 0 0 0 0 -0 -0 -0 -0 0 0 0 0 0 0 0 0 0 0 0 0 0 0 0 0
0 -0 -0 -0 -0 0 0 -0 -0 -0 -0 -0 -0 -0 -0 -0 -0 0 0 0 0 0 0 0 0 0 0 0 0 0 0 0 0 0 0 0 0 0 0 0 0 0 0
0 -0 0 0 0 0 0 0 -0 -0 -0 -0 -0 -0 -0 -0 0 0 0 0 0 0 0 0 0 0 0 0 0 0 0 0 0 0 0 0 0 0 0 0 0 0 0
0 0 0 0 0 0 0 0 0 -0 -0 -0 -0 -0 -0 -0 0 0 0 0 0 0 0 0 0 0 0 0 0 0 0 0 0 0 0 0 0 0 0 0 0 0 0
0 0 0 0 0 0 0 0 0 0 -0 -0 -0 -0 -0 -0 0 0 0 0 0 0 0 0 0 0 0 0 0 0 0 0 0 0 0 0 0 0 0 0 0 0 0
0 0 0 0 0 0 0 0 0 0 0 0 0 0 -0 0 0 0 0 0 0 0 0 0 0 0 0 0 0 0 0 0 0 0 0 0 0 0 0 0 0 0 0
0 0 0 0 0 0 0 0 0 0 0 0 0 0 -0 0 0 0 0 0 0 0 0 0 0 0 0 0 0 0 0 0 0 0 0 0 0 0 0 0 0 0 0
0 0 0 0 0 0 0 0 0 0 0 0 0 -0 -0 0 0 0 0 0 0 0 0 0 0 0 0 0 0 0 0 0 0 0 0 0 0 0 0 0 0 0 0
0 0 0 0 0 0 0 0 0 0 0 0 0 0 0 0 0 0 0 0 0 0 0 0 0 0 0 0 0 0 0 0 0 0 0 0 0 0 0 0 0 0 0
0 0 0 0 0 0 0 0 0 0 0 -0 -0 0 0 0 0 0 0 0 0 0 0 0 0 0 0 0 0 0 0 0 0 0 0 0 0 0 0 0 0 0 0
0 0 0 0 0 0 0 0 0 0 0 -0 -0 -0 -0 -0 0 0 0 0 0 0 0 0 0 0 0 0 0 0 0 0 0 0 0 0 0 0 0 0 0 0 0
0 0 0 0 0 0 0 0 0 0 0 0 0 -0 -0 0 0 0 0 0 0 0 0 0 0 0 0 0 0 0 0 0 0 0 0 0 0 0 0 0 0 0 0
0 0 0 0 0 0 0 0 0 0 0 0 0 0 0 0 0 0 0 0 0 0 0 0 0 0 0 0 0 0 0 0 0 0 0 0 0 0 0 0 0 0 0
0 0 0 0 0 0 0 0 0 0 0 0 0 0 0 0 0 0 0 0 0 0 0 0 0 0 0 0 0 0 0 0 0 0 0 0 0 0 0 0 0 0 -0
0 0 0 0 0 0 0 0 0 0 0 -0 0 0 0 0 0 0 0 0 0 0 -0 0 0 0 0 -0 0 0 0 0 0 0 0 0 0 0 0 0 0 -0 0
0 0 0 0 0 0 0 0 0 0 0 -0 0 0 0 0 0 0 0 0 0 -0 0 0 0 0 0 -0 -0 0 0 0 0 -0 -0 -0 -0 -0 -0 0 0 0 0
0 0 0 0 0 0 0 0 0 0 -0 0 0 0 0 0 0 0 0 0 0 -0 -0 0 -0 -0 -0 -0 0 -0 -0 -0 -0 -0 -0 -0 -0 -0 -0 0 0 0 0
0 0 0 0 0 0 0 0 0 0 0 0 0 0 0 0 0 0 0 0 -0 -0 0 -0 -0 -0 -0 -0 -0 0 -0 -0 -0 -0 -0 -0 0 -0 0 0 0 0 0
0 0 0 0 0 0 0 0 0 0 0 0 0 0 0 -0 0 0 0 0 0 -0 -0 -0 -0 -0 0 -0 -0 0 -0 -0 -0 -0 0 0 0 0 0 -0 0 0 0
0 0 0 0 -0 -0 0 0 0 0 0 0 0 0 0 -0 -0 0 0 0 0 0 -0 -0 -0 0 0 -0 0 0 0 0 0 0 0 0 0 0 0 0 0 0 0
0 0 -0 -0 -0 0 0 0 0 0 0 0 0 0 0 -0 -0 0 0 0 0 0 0 0 0 0 0 0 0 0 0 0 0 0 0 0 0 0 0 0 0 0 0
0 -0 -0 0 0 0 0 0 0 0 0 0 0 0 0 -0 -0 0 0 0 0 0 0 0 0 0 0 0 0 0 0 0 0 0 0 0 0 0 0 0 0 0 0
Wind_Speed_500mb
51 58 62 63 63 66 52 38 32 23 29 48 56 52 62 19 60 37 79 41 76 107 82 25 61 105 53 70 48 65 74 70 70 57 56 53 54 50 57 44 47 53 44
61 64 64 64 65 67 68 56 62 56 67 75 81 52 31 54 55 49 36 22 27 24 52 21 32 17 45 68 50 55 69 74 74 42 49 43 36 35 36 30 25 27 26
47 67 68 66 64 66 66 66 62 70 72 71 65 65 66 53 31 28 30 36 40 33 31 24 37 58 49 50 60 66 62 53 41 38 35 12 13 15 26 21 9 9 13
42 59 60 60 65 65 61 62 65 65 67 70 68 65 60 56 53 39 23 16 24 22 26 36 51 64 59 53 62 40 36 34 38 30 36 44 34 19 13 26 23 16 19
41 48 42 45 57 57 56 56 57 62 67 69 70 66 61 52 44 42 39 30 23 20 36 38 56 62 61 49 48 42 37 34 36 37 35 32 42 35 30 19 11 15 6
27 27 31 40 42 37 43 52 57 64 70 73 72 68 60 50 47 45 33 30 30 30 37 41 42 47 49 44 43 42 39 34 25 26 25 26 32 30 29 20 17 13 11
22 25 30 36 33 37 43 46 56 65 70 75 75 72 63 49 45 42 41 38 41 42 34 33 35 38 40 38 33 28 21 17 12 10 11 19 20 18 16 13 11 7 9
17 21 28 32 33 38 44 52 56 59 67 71 68 63 57 55 54 44 39 39 43 46 45 38 33 25 19 16 13 13 9 11 10 10 10 11 10 14 12 13 12 12 13
18 22 23 28 35 41 45 46 47 58 60 58 58 59 60 61 59 51 43 37 35 36 41 44 27 13 4 6 6 9 12 15 14 15 17 14 12 12 11 11 11 15 13
17 21 24 26 29 35 44 47 48 54 59 57 59 64 67 58 52 50 45 43 37 34 33 33 24 12 8 10 11 13 16 17 17 18 16 13 13 14 14 15 15 17 17
25 19 22 25 31 39 40 43 51 61 62 61 66 71 63 58 52 49 43 40 40 36 32 24 26 21 16 19 18 16 19 21 18 15 12 13 14 17 14 13 15 14 12
23 26 33 35 40 43 47 48 49 52 57 66 74 76 67 63 60 57 53 47 40 41 35 27 33 35 34 24 19 19 22 21 19 17 16 13 10 13 12 13 16 18 20
31 38 42 42 46 42 46 40 45 49 56 68 72 70 72 75 78 64 54 52 42 39 34 29 27 39 35 34 23 24 25 27 24 17 12 9 10 14 17 21 23 27 30
41 43 44 43 46 44 35 42 46 53 65 71 65 70 80 88 75 55 49 39 31 23 18 13 8 13 16 20 29 23 13 11 9 4 8 11 14 19 23 27 30 30 25
41 48 50 49 48 44 38 38 49 64 65 64 67 73 82 81 52 46 38 22 13 17 22 24 26 26 23 21 12 9 16 18 22 24 22 19 19 23 29 28 22 16 15
43 44 48 49 49 34 33 47 59 62 62 63 64 68 64 60 46 32 28 35 42 37 32 31 24 23 25 24 16 10 7 6 5 5 6 12 18 25 22 10 9 12 15
41 44 46 44 31 27 38 47 50 51 53 58 64 57 50 49 53 49 47 36 40 38 42 41 37 30 24 19 15 10 6 5 3 7 11 17 23 18 8 6 9 12 16
31 30 28 27 26 31 34 42 50 48 54 57 57 44 36 31 34 31 42 38 38 43 47 45 36 28 25 20 15 12 9 8 9 13 18 16 14 12 11 16 20 20 20
27 27 33 37 39 34 38 46 44 45 45 52 53 45 35 34 33 25 25 28 30 37 41 36 39 39 31 22 17 12 13 12 17 19 19 17 16 19 24 23 19 14 13
27 35 40 44 49 50 42 39 34 37 42 45 45 40 39 39 36 24 28 28 36 43 41 41 44 45 41 33 31 25 23 19 16 19 19 20 24 23 24 21 20 21 26
35 44 42 40 43 44 43 30 30 31 37 43 43 46 51 39 28 21 20 25 37 42 40 41 42 42 43 42 38 37 35 27 20 18 21 30 27 27 27 27 29 29 28
43 41 37 40 38 39 36 23 25 21 24 26 36 43 48 44 19 14 17 21 33 37 43 45 46 46 38 38 39 40 40 34 34 35 35 35 34 31 28 27 25 27 27
28 36 39 38 30 39 39 15 16 16 22 21 31 37 44 55 37 18 20 24 30 40 43 45 49 46 40 37 35 38 39 41 45 41 42 36 32 29 27 27 27 25 25
44 48 41 36 29 38 18 14 17 21 22 29 32 30 41 50 44 40 43 45 44 44 45 47 46 46 48 47 40 35 35 34 35 35 33 29 27 28 30 31 30 32 29
38 27 28 25 22 29 13 19 24 22 24 26 24 27 33 42 43 40 43 44 45 43 43 44 42 42 44 43 43 45 47 45 45 42 37 37 38 36 35 37 35 32 30
25 23 18 16 19 16 15 24 27 24 25 25 15 19 27 36 42 39 38 40 40 38 42 42 40 40 38 43 46 48 51 49 45 43 43 42 39 38 34 33 29 31 29
Wind_Direction_500mb
53 52 52 46 43 42 31 25 7 344 320 289 293 301 291 320 354 2 343 342 322 323 351 293 294 279 267 277 276 270 271 291 303 302 290 287 288 282 294 289 279 275 272
49 45 42 39 35 34 32 22 25 22 24 31 37 29 3 309 295 278 303 276 309 265 270 235 270 163 231 270 287 285 283 286 296 281 287 285 289 291 295 279 273 269 254
51 50 43 41 36 33 31 28 23 25 28 31 38 39 36 39 28 12 288 273 282 287 262 237 227 251 251 269 291 287 284 286 284 281 275 258 288 272 268 230 249 264 249
60 54 45 40 39 40 38 37 35 33 29 26 30 33 35 32 26 18 358 316 278 251 250 228 248 269 277 282 288 286 281 277 277 276 272 283 272 253 237 234 236 273 247
61 49 42 45 39 24 22 21 23 25 25 23 19 19 24 25 18 10 10 3 325 276 267 270 262 269 268 274 283 280 276 271 271 270 262 262 248 242 243 271 271 234 248
74 71 60 45 27 22 14 9 9 10 11 12 13 12 6 5 3 1 351 347 344 319 295 288 286 282 280 274 273 272 270 271 260 250 247 246 236 246 238 249 250 249 250
91 67 41 35 28 14 8 4 359 359 2 3 6 6 4 357 351 349 347 341 341 340 323 302 290 284 281 276 271 265 255 249 254 225 215 225 245 229 223 216 227 199 200
94 59 45 31 24 16 9 4 3 3 359 1 3 5 1 352 349 344 342 340 339 344 342 322 313 311 302 285 266 244 239 223 209 207 183 193 198 184 200 197 197 218 225
95 71 59 39 24 12 7 3 359 357 359 358 356 356 351 349 350 347 341 338 341 330 335 338 316 310 251 192 174 171 168 157 157 144 141 148 171 195 217 235 250 270 247
77 74 42 29 10 4 354 353 353 353 353 347 347 345 344 345 347 349 346 336 336 323 313 319 300 270 233 190 179 180 168 155 152 156 166 177 207 234 249 262 264 267 258
68 46 30 13 5 6 7 2 358 355 352 348 343 343 342 340 337 333 335 335 332 328 317 292 274 260 224 213 207 193 179 183 176 184 198 211 218 224 240 244 254 257 260
30 22 11 6 7 7 357 354 354 350 349 348 346 345 345 346 344 339 331 323 311 313 313 293 261 239 232 218 221 207 202 210 206 190 187 200 216 257 270 276 282 290 298
16 7 3 4 358 354 351 352 352 352 350 347 343 341 341 341 339 332 325 325 317 301 297 292 274 259 246 230 197 172 153 169 165 169 190 220 253 278 294 301 311 314 312
4 3 359 353 350 349 353 352 350 350 348 349 347 347 345 345 340 341 340 337 333 312 317 334 335 289 247 172 138 119 85 66 80 73 337 318 310 310 310 314 319 318 321
352 351 353 348 342 339 340 351 355 350 351 351 351 355 353 351 358 348 356 13 48 78 85 80 81 83 73 50 28 40 1 318 314 320 311 315 324 328 328 324 325 332 347
354 352 347 343 343 343 353 359 350 350 352 354 357 359 6 9 9 12 51 75 80 78 76 71 57 48 46 39 29 21 18 329 270 339 342 339 339 332 337 334 358 2 10
345 345 342 337 344 9 0 351 353 352 357 357 359 8 10 29 45 56 48 43 40 53 56 50 44 38 47 49 29 34 52 88 41 338 339 332 331 346 31 48 44 40 38
2 0 8 19 21 359 354 357 353 354 360 1 5 17 13 35 43 41 50 43 48 44 34 31 35 39 57 66 70 60 47 19 8 348 336 360 50 58 56 73 78 74 42
34 36 15 6 2 354 350 349 351 359 5 13 21 22 30 46 49 45 46 60 49 41 36 42 47 45 57 58 54 32 30 28 19 9 22 74 77 80 85 86 88 60 25
4 358 351 344 345 346 339 337 351 8 25 36 41 32 27 31 35 52 56 50 45 38 37 52 52 55 58 56 48 40 41 39 46 42 54 91 95 91 94 85 63 41 32
342 342 344 348 347 343 340 335 354 26 59 63 52 42 35 34 50 63 61 41 37 34 48 52 56 59 62 56 53 50 49 48 58 65 69 94 93 91 80 59 39 33 29
332 337 338 340 349 345 339 335 2 45 64 56 47 38 33 35 28 32 55 49 36 48 61 59 56 51 54 58 50 47 43 49 58 79 85 86 83 75 59 44 41 33 30
325 332 339 340 344 350 344 353 32 71 61 42 40 30 35 33 37 54 67 67 62 66 61 56 52 50 51 52 52 51 51 60 62 79 80 76 68 57 47 39 35 35 46
320 323 331 341 346 357 10 42 66 84 57 58 43 29 35 34 43 67 83 83 72 64 58 53 50 55 58 55 57 57 51 58 66 70 69 69 54 45 48 50 50 50 50
329 338 339 338 353 7 47 73 84 83 53 42 31 37 41 40 51 76 78 75 67 58 52 49 53 50 47 43 46 51 57 58 59 64 68 62 59 61 61 57 52 49 52
346 337 351 21 12 52 75 88 88 70 45 31 21 42 53 48 56 56 68 66 63 56 54 52 51 48 51 59 61 63 62 59 61 63 61 57 61 56 52 48 50 48 48
Wind_Speed_850mb
51 58 62 63 63 66 52 38 32 23 29 48 56 52 62 19 60 37 79 41 76 107 82 25 61 105 53 70 48 65 74 70 70 57 56 53 54 50 57 44 47 53 44
61 64 64 64 65 67 68 56 62 56 67 75 81 52 31 54 55 49 36 22 27 24 52 21 32 17 45 68 50 55 69 74 74 42 49 43 36 35 36 30 25 27 26
47 67 68 66 64 66 66 66 62 70 72 71 65 65 66 53 31 28 30 36 40 33 31 24 37 58 49 50 60 66 62 53 41 38 35 12 13 15 26 21 9 9 13
42 59 60 60 65 65 61 62 65 65 67 70 68 65 60 56 53 39 23 16 24 22 26 36 51 64 59 53 62 40 36 34 38 30 36 44 34 19 13 26 23 16 19
41 48 42 45 57 57 56 56 57 62 67 69 70 66 61 52 44 42 39 30 23 20 36 38 56 62 61 49 48 42 37 34 36 37 35 32 42 35 30 19 11 15 6
27 27 31 40 42 37 43 52 57 64 70 73 72 68 60 50 47 45 33 30 30 30 37 41 42 47 49 44 43 42 39 34 25 26 25 26 32 30 29 20 17 13 11
22 25 30 36 33 37 43 46 56 65 70 75 75 72 63 49 45 42 41 38 41 42 34 33 35 38 40 38 33 28 21 17 12 10 11 19 20 18 16 13 11 7 9
17 21 28 32 33 38 44 52 56 59 67 71 68 63 57 55 54 44 39 39 43 46 45 38 33 25 19 16 13 13 9 11 10 10 10 11 10 14 12 13 12 12 13
18 22 23 28 35 41 45 46 47 58 60 58 58 59 60 61 59 51 43 37 35 36 41 44 27 13 4 6 6 9 12 15 14 15 17 14 12 12 11 11 11 15 13
17 21 24 26 29 35 44 47 48 54 59 57 59 64 67 58 52 50 45 43 37 34 33 33 24 12 8 10 11 13 16 17 17 18 16 13 13 14 14 15 15 17 17
25 19 22 25 31 39 40 43 51 61 62 61 66 71 63 58 52 49 43 40 40 36 32 24 26 21 16 19 18 16 19 21 18 15 12 13 14 17 14 13 15 14 12
23 26 33 35 40 43 47 48 49 52 57 66 74 76 67 63 60 57 53 47 40 41 35 27 33 35 34 24 19 19 22 21 19 17 16 13 10 13 12 13 16 18 20
31 38 42 42 46 42 46 40 45 49 56 68 72 70 72 75 78 64 54 52 42 39 34 29 27 39 35 34 23 24 25 27 24 17 12 9 10 14 17 21 23 27 30
41 43 44 43 46 44 35 42 46 53 65 71 65 70 80 88 75 55 49 39 31 23 18 13 8 13 16 20 29 23 13 11 9 4 8 11 14 19 23 27 30 30 25
41 48 50 49 48 44 38 38 49 64 65 64 67 73 82 81 52 46 38 22 13 17 22 24 26 26 23 21 12 9 16 18 22 24 22 19 19 23 29 28 22 16 15
43 44 48 49 49 34 33 47 59 62 62 63 64 68 64 60 46 32 28 35 42 37 32 31 24 23 25 24 16 10 7 6 5 5 6 12 18 25 22 10 9 12 15
41 44 46 44 31 27 38 47 50 51 53 58 64 57 50 49 53 49 47 36 40 38 42 41 37 30 24 19 15 10 6 5 3 7 11 17 23 18 8 6 9 12 16
31 30 28 27 26 31 34 42 50 48 54 57 57 44 36 31 34 31 42 38 38 43 47 45 36 28 25 20 15 12 9 8 9 13 18 16 14 12 11 16 20 20 20
27 27 33 37 39 34 38 46 44 45 45 52 53 45 35 34 33 25 25 28 30 37 41 36 39 39 31 22 17 12 13 12 17 19 19 17 16 19 24 23 19 14 13
27 35 40 44 49 50 42 39 34 37 42 45 45 40 39 39 36 24 28 28 36 43 41 41 44 45 41 33 31 25 23 19 16 19 19 20 24 23 24 21 20 21 26
35 44 42 40 43 44 43 30 30 31 37 43 43 46 51 39 28 21 20 25 37 42 40 41 42 42 43 42 38 37 35 27 20 18 21 30 27 27 27 27 29 29 28
43 41 37 40 38 39 36 23 25 21 24 26 36 43 48 44 19 14 17 21 33 37 43 45 46 46 38 38 39 40 40 34 34 35 35 35 34 31 28 27 25 27 27
28 36 39 38 30 39 39 15 16 16 22 21 31 37 44 55 37 18 20 24 30 40 43 45 49 46 40 37 35 38 39 41 45 41 42 36 32 29 27 27 27 25 25
44 48 41 36 29 38 18 14 17 21 22 29 32 30 41 50 44 40 43 45 44 44 45 47 46 46 48 47 40 35 35 34 35 35 33 29 27 28 30 31 30 32 29
38 27 28 25 22 29 13 19 24 22 24 26 24 27 33 42 43 40 43 44 45 43 43 44 42 42 44 43 43 45 47 45 45 42 37 37 38 36 35 37 35 32 30
25 23 18 16 19 16 15 24 27 24 25 25 15 19 27 36 42 39 38 40 40 38 42 42 40 40 38 43 46 48 51 49 45 43 43 42 39 38 34 33 29 31 29
Wind_Direction_850mb
53 52 52 46 43 42 31 25 7 344 320 289 293 301 291 320 354 2 343 342 322 323 351 293 294 279 267 277 276 270 271 291 303 302 290 287 288 282 294 289 279 275 272
49 45 42 39 35 34 32 22 25 22 24 31 37 29 3 309 295 278 303 276 309 265 270 235 270 163 231 270 287 285 283 286 296 281 287 285 289 291 295 279 273 269 254
51 50 43 41 36 33 31 28 23 25 28 31 38 39 36 39 28 12 288 273 282 287 262 237 227 251 251 269 291 287 284 286 284 281 275 258 288 272 268 230 249 264 249
60 54 45 40 39 40 38 37 35 33 29 26 30 33 35 32 26 18 358 316 278 251 250 228 248 269 277 282 288 286 281 277 277 276 272 283 272 253 237 234 236 273 247
61 49 42 45 39 24 22 21 23 25 25 23 19 19 24 25 18 10 10 3 325 276 267 270 262 269 268 274 283 280 276 271 271 270 262 262 248 242 243 271 271 234 248
74 71 60 45 27 22 14 9 9 10 11 12 13 12 6 5 3 1 351 347 344 319 295 288 286 282 280 274 273 272 270 271 260 250 247 246 236 246 238 249 250 249 250
91 67 41 35 28 14 8 4 359 359 2 3 6 6 4 357 351 349 347 341 341 340 323 302 290 284 281 276 271 265 255 249 254 225 215 225 245 229 223 216 227 199 200
94 59 45 31 24 16 9 4 3 3 359 1 3 5 1 352 349 344 342 340 339 344 342 322 313 311 302 285 266 244 239 223 209 207 183 193 198 184 200 197 197 218 225
95 71 59 39 24 12 7 3 359 357 359 358 356 356 351 349 350 347 341 338 341 330 335 338 316 310 251 192 174 171 168 157 157 144 141 148 171 195 217 235 250 270 247
77 74 42 29 10 4 354 353 353 353 353 347 347 345 344 345 347 349 346 336 336 323 313 319 300 270 233 190 179 180 168 155 152 156 166 177 207 234 249 262 264 267 258
68 46 30 13 5 6 7 2 358 355 352 348 343 343 342 340 337 333 335 335 332 328 317 292 274 260 224 213 207 193 179 183 176 184 198 211 218 224 240 244 254 257 260
30 22 11 6 7 7 357 354 354 350 349 348 346 345 345 346 344 339 331 323 311 313 313 293 261 239 232 218 221 207 202 210 206 190 187 200 216 257 270 276 282 290 298
16 7 3 4 358 354 351 352 352 352 350 347 343 341 341 341 339 332 325 325 317 301 297 292 274 259 246 230 197 172 153 169 165 169 190 220 253 278 294 301 311 314 312
4 3 359 353 350 349 353 352 350 350 348 349 347 347 345 345 340 341 340 337 333 312 317 334 335 289 247 172 138 119 85 66 80 73 337 318 310 310 310 314 319 318 321
352 351 353 348 342 339 340 351 355 350 351 351 351 355 353 351 358 348 356 13 48 78 85 80 81 83 73 50 28 40 1 318 314 320 311 315 324 328 328 324 325 332 347
354 352 347 343 343 343 353 359 350 350 352 354 357 359 6 9 9 12 51 75 80 78 76 71 57 48 46 39 29 21 18 329 270 339 342 339 339 332 337 334 358 2 10
345 345 342 337 344 9 0 351 353 352 357 357 359 8 10 29 45 56 48 43 40 53 56 50 44 38 47 49 29 34 52 88 41 338 339 332 331 346 31 48 44 40 38
2 0 8 19 21 359 354 357 353 354 360 1 5 17 13 35 43 41 50 43 48 44 34 31 35 39 57 66 70 60 47 19 8 348 336 360 50 58 56 73 78 74 42
34 36 15 6 2 354 350 349 351 359 5 13 21 22 30 46 49 45 46 60 49 41 36 42 47 45 57 58 54 32 30 28 19 9 22 74 77 80 85 86 88 60 25
4 358 351 344 345 346 339 337 351 8 25 36 41 32 27 31 35 52 56 50 45 38 37 52 52 55 58 56 48 40 41 39 46 42 54 91 95 91 94 85 63 41 32
342 342 344 348 347 343 340 335 354 26 59 63 52 42 35 34 50 63 61 41 37 34 48 52 56 59 62 56 53 50 49 48 58 65 69 94 93 91 80 59 39 33 29
332 337 338 340 349 345 339 335 2 45 64 56 47 38 33 35 28 32 55 49 36 48 61 59 56 51 54 58 50 47 43 49 58 79 85 86 83 75 59 44 41 33 30
325 332 339 340 344 350 344 353 32 71 61 42 40 30 35 33 37 54 67 67 62 66 61 56 52 50 51 52 52 51 51 60 62 79 80 76 68 57 47 39 35 35 46
320 323 331 341 346 357 10 42 66 84 57 58 43 29 35 34 43 67 83 83 72 64 58 53 50 55 58 55 57 57 51 58 66 70 69 69 54 45 48 50 50 50 50
329 338 339 338 353 7 47 73 84 83 53 42 31 37 41 40 51 76 78 75 67 58 52 49 53 50 47 43 46 51 57 58 59 64 68 62 59 61 61 57 52 49 52
346 337 351 21 12 52 75 88 88 70 45 31 21 42 53 48 56 56 68 66 63 56 54 52 51 48 51 59 61 63 62 59 61 63 61 57 61 56 52 48 50 48 48